Lid_Strength_Index
1 1 1 1 0 1 1 1 1 1 1 1 1 1 1 1 1 1 1 1 2 2 1 2 2 1 2 1 1 2 2 3 5 3 2 1 1 1 1 0 1 0 2
1 1 1 1 0 1 1 1 1 1 1 1 1 1 1 1 1 1 2 1 2 2 2 2 2 1 2 1 2 2 2 2 3 4 3 2 2 1 1 1 0 -0 0
1 1 1 1 1 1 1 1 1 1 1 1 1 1 1 1 1 1 1 2 2 2 2 2 2 2 2 2 2 2 2 2 2 3 3 2 2 1 2 1 1 1 1
1 1 1 1 1 1 1 1 1 1 1 1 1 1 1 1 1 1 1 2 2 1 1 1 1 2 2 2 2 2 2 2 2 3 3 3 2 1 2 2 3 1 2
1 1 2 1 1 1 1 1 1 1 1 1 1 1 1 1 1 1 1 2 2 2 1 1 1 1 3 2 2 2 2 3 3 3 4 3 3 3 3 2 3 2 1
2 2 1 1 1 1 1 1 1 1 1 1 1 1 2 1 5 7 3 2 2 2 2 2 1 4 5 6 6 6 2 2 3 3 3 4 3 3 2 3 3 3 5
2 2 1 1 1 1 1 1 2 2 1 2 2 2 2 1 7 10 8 1 2 2 2 2 2 2 3 3 7 6 6 5 3 2 3 3 3 2 2 3 3 3 3
2 2 2 2 2 2 2 2 2 2 2 2 2 2 2 2 8 11 9 1 2 2 1 1 1 2 1 1 2 2 1 2 2 1 1 2 1 1 1 1 2 2 2
2 2 2 2 2 2 3 2 2 2 2 2 2 2 2 2 11 12 7 2 2 2 1 1 1 1 8 7 2 2 2 2 8 8 7 8 7 8 3 1 3 3 4
2 2 2 2 3 3 3 2 2 2 2 2 2 2 2 2 12 13 5 2 2 2 2 1 6 2 10 10 2 2 3 2 2 2 2 4 4 4 6 1 1 3 4
2 2 3 3 3 3 2 2 2 2 2 2 2 2 2 2 6 13 8 2 2 2 2 2 3 10 10 11 7 2 3 2 3 1 2 1 1 1 1 1 1 2 3
3 4 4 4 3 3 2 2 2 2 3 3 3 3 2 2 9 11 9 7 6 2 2 2 7 13 12 11 6 11 9 5 1 2 2 2 2 2 1 1 0 0 0
5 6 5 4 3 3 2 3 3 3 3 3 3 4 3 4 7 11 11 10 8 2 1 6 13 13 12 10 10 10 10 1 2 2 3 3 2 1 1 1 0 0 1
6 5 5 5 4 3 2 2 3 3 4 4 4 4 4 4 4 4 6 7 10 8 10 9 8 7 6 5 5 6 1 1 2 2 2 2 1 1 2 1 2 2 2
6 6 6 6 5 3 3 3 3 2 3 3 3 3 4 4 3 5 4 2 2 5 4 3 3 2 2 2 2 2 1 1 2 2 2 2 2 2 2 1 2 2 3
7 5 4 4 3 3 3 4 11 8 10 10 8 4 2 8 10 11 10 10 10 9 3 3 3 3 3 3 3 2 2 3 2 2 2 2 2 2 2 2 2 2 3
5 4 4 4 4 4 4 4 5 9 13 13 12 11 10 12 12 12 11 10 10 8 3 3 3 3 3 3 2 2 3 2 1 2 2 2 2 2 3 2 2 2 3
6 8 4 3 3 3 4 4 4 5 5 7 12 11 13 13 12 12 12 8 3 3 2 3 3 3 2 2 2 2 2 2 2 2 2 2 2 2 3 3 3 3 3
5 4 4 4 3 3 3 3 4 4 6 7 6 9 12 13 13 12 9 2 3 3 2 2 2 2 2 2 2 2 2 2 2 2 2 2 2 2 3 2 3 8 6
4 9 8 4 3 3 3 3 3 3 3 4 5 5 4 4 3 2 2 2 2 2 2 2 2 2 2 2 2 2 2 2 2 2 2 2 2 2 2 2 2 3 3
4 4 10 3 3 3 3 3 3 3 3 4 4 4 11 2 3 3 3 3 2 2 2 2 2 2 1 1 1 2 2 2 2 2 2 2 1 2 2 2 2 2 2
4 3 3 3 3 3 3 3 3 3 3 3 3 7 12 3 4 5 7 7 7 5 5 5 4 4 4 4 2 1 2 2 2 2 2 2 2 2 2 2 2 2 2
5 4 3 3 3 5 3 3 3 3 3 3 3 5 5 6 8 9 10 10 10 10 9 8 8 8 7 8 7 6 3 3 2 2 2 2 1 2 2 2 2 3 3
4 3 3 3 3 3 3 3 3 6 3 4 5 6 8 10 10 10 11 11 11 11 11 12 12 11 10 10 10 9 9 7 4 2 2 1 1 3 2 2 3 3 3
3 3 3 3 3 3 3 4 4 5 5 6 7 9 10 11 12 12 12 13 13 13 14 13 13 13 12 12 12 11 14 15 8 10 4 3 4 5 5 6 6 6 6
3 3 3 3 3 4 5 6 6 7 8 8 9 11 12 13 13 14 14 14 15 15 15 15 15 15 14 14 15 16 15 14 11 12 6 7 7 7 8 8 9 9 8